Regional Weather Roundup
Issued by NWS Midland/Odessa, TX

Skip options and go directly to product.
Home | Oldest Version | Next Version | Current Version | All | Text Only | Save Text | Print | Product List | Glossary On

Skip product version selection by date and time.   
009
ASUS44 KMAF 221402
RWRMAF
MIDLAND AREA WEATHER ROUNDUP
NATIONAL WEATHER SERVICE MIDLAND TX
900 AM CDT TUE APR 22 2014

...IN SOUTHWEST TEXAS AND SOUTHEAST NEW MEXICO...

CITY           SKY/WX    TMP DP  RH WIND       PRES   REMARKS
ALPINE         SUNNY     61  48  62 CALM      30.23R
ANDREWS        FAIR      62  52  71 SE5       30.17R
ARTESIA        SUNNY     57  48  72 NW3       30.18R
BIG SPRING     SUNNY     67  52  57 NE7       30.16R
CARLSBAD       SUNNY     66  50  56 S9        30.15R
DRYDEN           N/A     72  63  73 NE3       30.09R
FORT STOCKTON  SUNNY     65  59  81 SE7       30.12S
GUAD PASS      SUNNY     58  50  75 NE31      30.20R
HOBBS          SUNNY     63  50  63 E8        30.19R
MARFA          SUNNY     59  45  58 CALM      30.21S
MIDLAND AIRPK  SUNNY     65  54  68 S5        30.16S
MIDLAND INTL   SUNNY     64  54  69 SE7       30.15R
ODESSA         SUNNY     66  54  65 SE8       30.15S
PECOS          SUNNY     66  55  66 E9        30.12S
PRESIDIO       FAIR      70  57  63 NE17G24   30.09S
SEMINOLE       SUNNY     62  52  70 SE3       30.18S
SNYDER         SUNNY     63  54  73 CALM      30.15S
WINK           SUNNY     67  56  67 E8        30.13R
$$
...OTHER STATIONS IN TEXAS...

CITY           SKY/WX    TMP DP  RH WIND       PRES   REMARKS
ABILENE        SUNNY     63  56  78 N6        30.12R
AMARILLO       SUNNY     58  39  49 SE14      30.20R
AUSTIN         SUNNY     72  64  76 N7        30.03R
BROWNSVILLE    PTSUNNY   73  70  90 SE5       30.00R
CORPUS CHRISTI MOSUNNY   74  67  78 CALM      29.99S
DALLAS FTW     SUNNY     68  61  78 N10       30.07R
DEL RIO        SUNNY     71  64  78 NE5       30.06R
EL PASO        SUNNY     67  47  48 NE3       30.11R
HOUSTON INT    CLOUDY    70  65  84 W5        30.01R
LUBBOCK        PTSUNNY   59  51  75 NW5       30.18R
SAN ANGELO     SUNNY     65  56  72 CALM      30.11R
SAN ANTONIO    MOSUNNY   71  61  70 NW5       30.05R
WACO           FOG       63  63 100 N5        30.06R VSB 1/16
WICHITA FALLS  NOT AVBL
$$
...OTHER LOCATIONS IN NEW MEXICO...

CITY           SKY/WX    TMP DP  RH WIND       PRES   REMARKS
ALAMAGORDO     SUNNY     57  36  44 NE3       30.14R
ALBUQUERQUE    MOSUNNY   61  39  44 N6        30.16R
CANNON AFB     NOT AVBL
CLOVIS         SUNNY     57  48  72 W10       30.25S
HOLLOMAN AFB   NOT AVBL
ROSWELL        SUNNY     61  47  59 CALM      30.17S
RUIDOSO        SUNNY     50  43  76 E6        30.31S
SANTA FE       MOSUNNY   56  41  57 SE21G28   30.21S
TRUTH OR CONSE SUNNY     61  35  37 CALM      30.13S
TUCUMCARI      SUNNY     59  47  64 SW5       30.19S
$$

USA.gov is the U.S. government's official web portal to all federal, state and local government web resources and services.